Regional Weather Roundup
Issued by NWS

Home | Current Version | Previous Version | Graphics & Text | Print | Product List | Glossary On
Versions: 1 2 3 4 5 6 7 8 9 10 11 12 13 14 15 16 17 18 19 20 21 22 23 24 25 26 27 28 29 30 31 32 33 34 35 36 37 38 39 40 41 42 43 44 45 46 47 48 49 50
813
ASUS43 KMKX 191811
RWRWI

WISCONSIN REGIONAL WEATHER ROUNDUP
NATIONAL WEATHER SERVICE MILWAUKEE/SULLIVAN WI
100 PM CDT TUE SEP 19 2017

NOTE: "FAIR" INDICATES FEW OR NO CLOUDS BELOW 12,000 FEET WITH NO
SIGNIFICANT WEATHER AND/OR OBSTRUCTIONS TO VISIBILITY.

WIZ001-002-006>008-014>016-023>028-191900-
NORTHWEST WISCONSIN

CITY           SKY/WX    TMP DP  RH WIND       PRES   REMARKS
SUPERIOR ARPT  CLOUDY    64  58  80 NE10G16   29.92F
6HR MIN TEMP:  57; 6HR MAX TEMP:  66;

ASHLAND        MOSUNNY   74  58  57 E8        29.94F
6HR MIN TEMP:  57; 6HR MAX TEMP:  75;

HAYWARD        MOSUNNY   72  58  61 SE12      29.94F
6HR MIN TEMP:  58; 6HR MAX TEMP:  72;

SIREN          SUNNY     72  59  63 SE10G17   29.91F
6HR MIN TEMP:  58; 6HR MAX TEMP:  73;

CUMBERLAND     SUNNY     70  59  68 SE9       29.93F
RICE LAKE      SUNNY     73  59  61 SE12G17   29.94F
6HR MIN TEMP:  57; 6HR MAX TEMP:  73;

CHETEK         SUNNY     72  61  68 SE12G22   29.93F
6HR MIN TEMP:  57; 6HR MAX TEMP:  73;

LADYSMITH      SUNNY     74  58  59 SE7       29.97S
6HR MIN TEMP:  56; 6HR MAX TEMP:  74;

EAU CLAIRE     SUNNY     74  60  61 SE14      29.92F
6HR MIN TEMP:  57; 6HR MAX TEMP:  75;

MENOMONIE      SUNNY     74  61  64 E10       29.92F
6HR MIN TEMP:  58; 6HR MAX TEMP:  74;

NEW RICHMOND   MOSUNNY   74  60  62 SE10G17   29.90F
6HR MIN TEMP:  58; 6HR MAX TEMP:  74;

OSCEOLA        CLOUDY    76  62  62 S15       29.91F
6HR MIN TEMP:  59; 6HR MAX TEMP:  76;

$$

WIZ003>005-009-010-017-018-191900-
NORTH CENTRAL WISCONSIN

CITY           SKY/WX    TMP DP  RH WIND       PRES   REMARKS
MANITOWISH WTR SUNNY     71  55  56 SE9       29.98F
6HR MIN TEMP:  54; 6HR MAX TEMP:  71;

ARBOR VITAE    SUNNY     72  57  58 S9        29.99F
6HR MIN TEMP:  57; 6HR MAX TEMP:  72;

WOODRUFF       SUNNY     72  57  58 S9        29.99F
6HR MIN TEMP:  57; 6HR MAX TEMP:  72;

RHINELANDER    SUNNY     73  56  54 E10       30.00F
6HR MIN TEMP:  53; 6HR MAX TEMP:  73;

EAGLE RIVER    SUNNY     71  51  49 SE9       30.00F
6HR MIN TEMP:  55; 6HR MAX TEMP:  71;

LAND O LAKES   SUNNY     72  55  54 SE9G16    30.02S
6HR MIN TEMP:  54; 6HR MAX TEMP:  72;

PHILLIPS       SUNNY     71  57  61 SE9       29.97S
6HR MIN TEMP:  54; 6HR MAX TEMP:  72;

TOMAHAWK         N/A     73  56  55 SE6       29.99F
6HR MIN TEMP:  53; 6HR MAX TEMP:  73;

MEDFORD        MOSUNNY   71  56  58 E9        29.98S
6HR MIN TEMP:  53; 6HR MAX TEMP:  71;

MERRILL        MOSUNNY   72  55  56 SE8       29.99F
$$

WIZ029-030-035-036-043>047-191900-
CENTRAL WISCONSIN

CITY           SKY/WX    TMP DP  RH WIND       PRES   REMARKS
WAUSAU         SUNNY     73  55  53 SE10      29.97F
6HR MIN TEMP:  54; 6HR MAX TEMP:  73;

MOSINEE        MOSUNNY   73  55  53 SE8       29.99F
MARSHFIELD     SUNNY     73  55  53 SE8       29.97F
6HR MIN TEMP:  56; 6HR MAX TEMP:  74;

STEVENS POINT  SUNNY     72  52  48 E12       29.99S
6HR MIN TEMP:  54; 6HR MAX TEMP:  72; 6HR PCP:  0.05;

WAUPACA        SUNNY     78  55  44 SE9       29.99S
6HR MIN TEMP:  59; 6HR MAX TEMP:  78;

WAUTOMA        SUNNY     76  52  43 SE8       29.98F
6HR MIN TEMP:  52; 6HR MAX TEMP:  76;

WISC RAPIDS    SUNNY     77  53  43 SE9       29.97F
6HR MIN TEMP:  58; 6HR MAX TEMP:  78;

CAMP DOUGLAS   SUNNY     77  59  53 SE7       29.95F
$$

WIZ011>013-019>022-031-037>040-048>050-191900-
NORTHEAST WISCONSIN

CITY           SKY/WX    TMP DP  RH WIND       PRES   REMARKS
ANTIGO         SUNNY     69  58  67 E9        30.01F
6HR MIN TEMP:  55; 6HR MAX TEMP:  69;

SHAWANO        MOSUNNY   73  62  68 E8        30.00S
6HR MIN TEMP:  59; 6HR MAX TEMP:  73;

OCONTO         PTSUNNY   71  60  68 E7        30.01S
STURGEON BAY   SUNNY     70  58  65 E8        30.02F HAZE
6HR MIN TEMP:  61; 6HR MAX TEMP:  70;

GREEN BAY      PTSUNNY   73  64  73 CALM      30.00F
6HR MIN TEMP:  56; 6HR MAX TEMP:  73;

MANITOWOC      PTSUNNY   68  60  75 VRB5      30.01F
6HR MIN TEMP:  59; 6HR MAX TEMP:  68;

APPLETON       PTSUNNY   72  57  60 E8        29.99S
CLINTONVILLE   MOSUNNY   73  55  53 E8        29.99F
OSHKOSH        SUNNY     73  60  63 E7        29.98F
6HR MIN TEMP:  58; 6HR MAX TEMP:  73;

$$

WIZ032>034-041-042-053>061-191900-
SOUTHWEST WISCONSIN

CITY           SKY/WX    TMP DP  RH WIND       PRES   REMARKS
LA CROSSE      MOSUNNY   77  64  64 SE5       29.91F
6HR MIN TEMP:  59; 6HR MAX TEMP:  79;

SPARTA         SUNNY     75  62  64 E8        29.95S
6HR MIN TEMP:  54; 6HR MAX TEMP:  75; 6HR PCP:  0.01;

VIROQUA        PTSUNNY   76  65  68 SE10      29.96S
6HR MIN TEMP:  54; 6HR MAX TEMP:  76;

BOSCOBEL       MOSUNNY   80  62  54 E8        29.94F HX  81
6HR MIN TEMP:  53; 6HR MAX TEMP:  80;

PRAIRIE DU CHI SUNNY     79  60  51 SE9       29.92F HX  80
6HR MIN TEMP:  58; 6HR MAX TEMP:  79;

PLATTEVILLE    MOSUNNY   77  65  65 E7        29.97S
6HR MIN TEMP:  56; 6HR MAX TEMP:  78; 6HR PCP:  0.04;

$$

WIZ056-057-062-063-064-067-068-191900-
SOUTH CENTRAL WISCONSIN

CITY           SKY/WX    TMP DP  RH WIND       PRES   REMARKS
REEDSBURG      SUNNY     76  60  57 SE3       29.96F
6HR MIN TEMP:  54; 6HR MAX TEMP:  76;

BARABOO/DELLS  SUNNY     76  56  50 E7        29.97S
6HR MIN TEMP:  55; 6HR MAX TEMP:  76;

LONE ROCK      SUNNY     77  63  61 E12       29.95F
6HR MIN TEMP:  56; 6HR MAX TEMP:  78;

MINERAL POINT  MOSUNNY   79  64  61 SE7       29.97S HX  81
MADISON        SUNNY     77  58  51 E7        29.96F
6HR MIN TEMP:  55; 6HR MAX TEMP:  77;

MIDDLETON      SUNNY     76  60  56 E7        29.97F
6HR MIN TEMP:  55; 6HR MAX TEMP:  76;

WATERTOWN      SUNNY     78  56  46 E7        29.96F
6HR MIN TEMP:  58; 6HR MAX TEMP:  78;

MONROE         SUNNY     77  59  53 SE6       29.97S
JANESVILLE     MOSUNNY   81  63  54 VRB6      29.95F HX  82
$$

WIZ051-052-058>065-066-070>072-191900-
SOUTHEAST WISCONSIN

CITY           SKY/WX    TMP DP  RH WIND       PRES   REMARKS
MILWAUKEE      CLOUDY    71  67  87 E9        29.98S FOG
6HR MIN TEMP:  64; 6HR MAX TEMP:  75;

WAUKESHA       MOSUNNY   73  61  64 E12       29.98F
MILWAUKEE/TIMM CLOUDY    70  59  68 E7        29.99S HAZE
RACINE         CLOUDY    72  67  84 E10       29.99S HAZE
6HR MIN TEMP:  65; 6HR MAX TEMP:  77;

BURLINGTON     SUNNY     79  65  63 SE7       29.95F HX  80
6HR MIN TEMP:  58; 6HR MAX TEMP:  79;

KENOSHA        MOSUNNY   76  65  68 E12       29.97S
6HR MIN TEMP:  65; 6HR MAX TEMP:  78;

FOND DU LAC    SUNNY     77  56  48 NE9       29.98S
6HR MIN TEMP:  54; 6HR MAX TEMP:  77;

SHEBOYGAN      MOSUNNY   71  63  75 CALM      30.00F
6HR MIN TEMP:  59; 6HR MAX TEMP:  72;

WEST BEND        N/A     72  63  73 NE8       29.98F
JUNEAU         SUNNY     75  54  48 CALM      29.98F
6HR MIN TEMP:  54; 6HR MAX TEMP:  76;

$$

LSZ147-162-191900-
LAKE SUPERIOR

STATION/POSITION TIME  TEMP    WIND        PRES    WAVE
                       AIR SEA DIR/SP/G            HT/PER
                 (UTC) (F)     (DEG/KT/KT) (MB)    (FT/S)
W MID LAKE BUOY  1750   57 55   80/  6/  8 1015.1F   1/ 3
DEVILS ISLAND    1800   59      60/ 10/ 10 1014.4F
SAXON HARBOR     1730   66      60/  4/  7 1013.9F
$$

LMZ867-665-643>646-191900-
LAKE MICHIGAN

STATION/POSITION TIME  TEMP    WIND        PRES    WAVE
                       AIR SEA DIR/SP/G            HT/PER
                 (UTC) (F)     (DEG/KT/KT) (MB)    (FT/S)
S GREEN BAY BUOY 1800   68 67  120/  2/  4 1016.1
N MID LAKE BUOY  1750   63 65   90/  8/  8 1017.7F   1/



USA.gov is the U.S. government's official web portal to all federal, state and local government web resources and services.